LSZG

Details ICAO LSZG
Name Grenchen
Region Switzerland
Timezone Europe/Zurich (UTC+2.0)
Plans Departing 41
Arriving 32
Stats Elevation 1,411 ft / 430 m (AMSL)
Location 47.181591° 7.415841°
Runways 2
Magnetic Variation 2.113° E
Sunrise 2018-05-22 03:48:13 UTC / 2018-05-22 05:48:13 Local
Sunset 2018-05-22 19:08:38 UTC / 2018-05-22 21:08:38 Local
Advertisement - Login to hide

Runways

ID Width Length Bearing (true) Bearing (mag) Surface Threshold Offset Overrun Length
07C 75 ft / 23 m 3,273 ft / 998 m 65.56° 63.45° Asphalt 443 ft / 135 m 0 ft / 0 m
07L 98 ft / 30 m 1,637 ft / 499 m 66.08° 63.97° Grass 213 ft / 65 m 0 ft / 0 m
25C 75 ft / 23 m 3,273 ft / 998 m 245.56° 243.45° Asphalt 0 ft / 0 m 0 ft / 0 m
25R 98 ft / 30 m 1,637 ft / 499 m 246.08° 243.97° Grass 85 ft / 26 m 0 ft / 0 m

Map

Weather


0- 5 10 15 20 25 30 35+ Temperature / ° C

Clouds and Precipitation
Forecast for 2018-05-22 18:00 UTC. Updated an hour ago

Ground ~20,000 ft ~40,000 ft Winds

METAR

LSZG 221750Z AUTO 19009KT 9999 BKN070 SCT090 //////TCU 19/11 Q1013

TAF

Not found

Frequencies

Recorded 121.10 MHz ATIS
Tower 119.70 MHz TWR
Ground 121.80 MHz GND
Tower 120.10 MHz TWR
Warning: Do not use this data for real-world aviation or navigation. No guarantee of current accuracy is given.